Location: Caixon
(43.4106°N, 0.0273°E)
Time: 16:13:39
(UTC+00:00)

Lacrosse 5 rocket - Pass Details

Date: 16 October 2021
Orbit: 459 x 633 km, 57.0° (Epoch: 28 November)

Event Time Altitude Azimuth Distance (km) Brightness Sun altitude
Exits shadow 05:36:50 - 244° (WSW) 2,169 3.8 -7.7°
Reaches altitude 10° 05:37:40 10° 247° (WSW) 1,850 3.5 -7.6°
Maximum altitude 05:41:46 50° 323° (NW) 747 1.7 -6.8°
Drops below altitude 10° 05:46:07 10° 40° (NE) 1,958 4.6 -6.0°
Sets 05:48:31 0° 45° (NE) 2,887 5.6 -5.6°
